Regional Weather Roundup
Issued by NWS

Home | Current Version | Previous Version | Graphics & Text | Print | Product List | Glossary Off
Versions: 1 2 3 4 5 6 7 8 9 10 11 12 13 14 15 16 17 18 19 20 21 22 23 24 25 26 27 28 29 30 31 32 33 34 35 36 37 38 39 40 41 42 43 44 45 46 47 48 49 50

000
ASUS43 KTOP 040059
RWRKS

WEATHER ROUNDUP FOR KANSAS
NATIONAL WEATHER SERVICE GOODLAND KS
800 PM CDT SUN MAY 03 2015

NOTE:  "FAIR" INDICATES FEW OR NO CLOUDS BELOW 12,000 FEET WITH NO
SIGNIFICANT WEATHER AND/OR OBSTRUCTIONS TO VISIBILITY.

KSZ001>006-013>018-027>032-041>047-040200-
NORTHWEST KANSAS

CITY           SKY/WX    TMP DP  RH WIND       PRES   REMARKS
GOODLAND       CLOUDY    75  43  31 N8        29.85S
HAYS           PTCLDY    79  48  34 S10       29.78R
HILL CITY      MOCLDY    78  58  49 S3        29.77R
RUSSELL        MOCLDY    80  53  39 S10       29.76R
$$

KSZ061>065-074>080-084>089-040200-
SOUTHWEST KANSAS

CITY           SKY/WX    TMP DP  RH WIND       PRES   REMARKS
DODGE CITY     MOCLDY    78  49  35 S20G29    29.82R
ELKHART          N/A     65  46  50 E14         N/A
GARDEN CITY    LGT RAIN  75  42  30 W16G31    29.81R
GREAT BEND     CLEAR     81  55  41 S18       29.78R
LIBERAL        CLOUDY    63  48  59 W6G22     29.95R
$$

KSZ066>073-081>083-090>101-040200-
SOUTHEAST KANSAS

CITY           SKY/WX    TMP DP  RH WIND       PRES   REMARKS
CHANUTE        MOCLDY    75  58  55 S14G24    29.88S
COFFEYVILLE    MOCLDY    74  56  53 S14       29.89F
HUTCHINSON     CLEAR     76  60  57 S18G26    29.82
MEDICINE LODGE   N/A     76  58  53 S8        29.83R
NEWTON         CLEAR     73  55  53 S18       29.85S
PARSONS        PTCLDY    74  59  59 S9        29.90F
WICHITA INTL   PTCLDY    76  58  53 S17       29.84R
WICHITA JABRA  PTCLDY    75  57  53 S15G28    29.84S
WINFIELD       MOCLDY    73  58  59 S13       29.87S
$$

KSZ007>012-019>026-033>040-048>060-102>105-040200-
NORTHEAST KANSAS

CITY           SKY/WX    TMP DP  RH WIND       PRES   REMARKS
CONCORDIA      PTCLDY    79  56  45 S14       29.74F
EMPORIA        PTCLDY    75  56  51 S17G24    29.84R
LAWRENCE       PTCLDY    78  57  48 S10       29.83R
MANHATTAN      MOCLDY    76  61  59 SW7       29.77R
OLATHE IND     MOCLDY    75  58  55 S14       29.86R
OLATHE EXE     MOCLDY    75  59  57 S12       29.85R
SALINA         MOCLDY    80  57  45 S9        29.77S
TOPEKA BILLARD MOCLDY    80  56  43 S12       29.81R
TOPEKA FORBES  MOCLDY    80  56  43 S15G22    29.81R
$$



USA.gov is the U.S. government's official web portal to all federal, state and local government web resources and services.